,,,PA_Meas_PMT16A,,PR_Meas_QMR101_102,,RH_Meas_QMH101,,SR_Meas_QMS101,,TA_Meas_QMH101,,GenWind,,GenWind,
date,time,status,PA,status,PR,status,RH,status,SR,status,TA,status,DirAvg,status,SpdAvg,
2009-11-30, 00:00:04,VALID,1003.46,VALID,0,VALID,95.3305,VALID,0,VALID,24.6964,VALID,1,VALID,0.454297,
2009-11-30, 00:01:04,VALID,1003.43,VALID,0,VALID,95.3076,VALID,0,VALID,24.6769,VALID,1,VALID,0.241016,
2009-11-30, 00:02:04,VALID,1003.44,VALID,0,VALID,95.3,VALID,0,VALID,24.6788,VALID,1,VALID,0,
2009-11-30, 00:03:04,VALID,1003.46,VALID,0,VALID,95.3152,VALID,0,VALID,24.6574,VALID,1,VALID,0,
2009-11-30, 00:04:04,VALID,1003.46,VALID,0,VALID,95.3152,VALID,0,VALID,24.6964,VALID,1,VALID,0,
2009-11-30, 00:05:04,VALID,1003.47,VALID,0,VALID,95.3152,VALID,0,VALID,24.6964,VALID,1,VALID,0,
2009-11-30, 00:06:04,VALID,1003.44,VALID,0,VALID,95.3381,VALID,0,VALID,24.6964,VALID,1,VALID,0,
2009-11-30, 00:07:04,VALID,1003.41,VALID,0,VALID,95.3305,VALID,0,VALID,24.6964,VALID,1,VALID,0,
2009-11-30, 00:08:04,VALID,1003.39,VALID,0,VALID,95.3229,VALID,0,VALID,24.6964,VALID,1,VALID,0,
2009-11-30, 00:09:04,VALID,1003.33,VALID,0,VALID,95.3229,VALID,0,VALID,24.6964,VALID,1,VALID,0,
2009-11-30, 00:10:04,VALID,1003.28,VALID,0,VALID,95.3381,VALID,0,VALID,24.6983,VALID,1,VALID,0,
2009-11-30, 00:11:04,VALID,1003.24,VALID,0,VALID,95.3305,VALID,0,VALID,24.6769,VALID,1,VALID,0,
2009-11-30, 00:12:04,VALID,1003.24,VALID,0,VALID,95.3381,VALID,0,VALID,24.6769,VALID,1,VALID,0,
2009-11-30, 00:13:04,VALID,1003.18,VALID,0,VALID,95.3457,VALID,0,VALID,24.6769,VALID,1,VALID,0,
2009-11-30, 00:14:04,VALID,1003.2,VALID,0,VALID,95.3152,VALID,0,VALID,24.6574,VALID,1,VALID,0,
2009-11-30, 00:15:04,VALID,1003.19,VALID,0,VALID,95.3305,VALID,0,VALID,24.6769,VALID,1,VALID,0,
2009-11-30, 00:16:04,VALID,1003.21,VALID,0,VALID,95.3229,VALID,0,VALID,24.675,VALID,1,VALID,0,
2009-11-30, 00:17:04,VALID,1003.22,VALID,0,VALID,95.3229,VALID,0,VALID,24.6964,VALID,1,VALID,0,
2009-11-30, 00:18:04,VALID,1003.21,VALID,0,VALID,95.3457,VALID,0,VALID,24.7372,VALID,1,VALID,0,
2009-11-30, 00:19:04,VALID,1003.21,VALID,0,VALID,95.3305,VALID,0,VALID,24.7353,VALID,1,VALID,0,
2009-11-30, 00:20:04,VALID,1003.22,VALID,0,VALID,95.3381,VALID,0,VALID,24.7159,VALID,1,VALID,0.223438,
2009-11-30, 00:21:04,VALID,1003.21,VALID,0,VALID,95.3457,VALID,0,VALID,24.7353,VALID,1,VALID,0.116016,
2009-11-30, 00:22:04,VALID,1003.19,VALID,0,VALID,95.3305,VALID,0,VALID,24.7353,VALID,1,VALID,0,
2009-11-30, 00:23:04,VALID,1003.21,VALID,0,VALID,95.3229,VALID,0,VALID,24.7743,VALID,1,VALID,0.105469,
2009-11-30, 00:24:04,VALID,1003.18,VALID,0,VALID,95.3229,VALID,0,VALID,24.7937,VALID,1,VALID,0,
2009-11-30, 00:25:04,VALID,1003.18,VALID,0,VALID,95.3381,VALID,0,VALID,24.7937,VALID,1,VALID,0.0632813,
2009-11-30, 00:26:04,VALID,1003.15,VALID,0,VALID,95.3152,VALID,0,VALID,24.7937,VALID,1,VALID,0,
2009-11-30, 00:27:04,VALID,1003.17,VALID,0,VALID,95.3,VALID,0,VALID,24.7937,VALID,1,VALID,0,
2009-11-30, 00:28:04,VALID,1003.17,VALID,0,VALID,95.2847,VALID,0,VALID,24.7937,VALID,1,VALID,0,
2009-11-30, 00:29:04,VALID,1003.18,VALID,0,VALID,95.2847,VALID,0,VALID,24.7937,VALID,1,VALID,0,
2009-11-30, 00:30:04,VALID,1003.18,VALID,0,VALID,95.2771,VALID,0,VALID,24.8327,VALID,272,VALID,0.347266,
2009-11-30, 00:31:04,VALID,1003.17,VALID,0,VALID,95.2771,VALID,0,VALID,24.8716,VALID,272,VALID,0.402734,
2009-11-30, 00:32:04,VALID,1003.17,VALID,0,VALID,95.2542,VALID,0,VALID,24.8716,VALID,283,VALID,0.648438,
2009-11-30, 00:33:04,VALID,1003.14,VALID,0,VALID,95.2466,VALID,0,VALID,24.8522,VALID,283,VALID,0.544531,
2009-11-30, 00:34:04,VALID,1003.08,VALID,0,VALID,95.2237,VALID,0,VALID,24.8132,VALID,333,VALID,0.541797,
2009-11-30, 00:35:04,VALID,1003.08,VALID,0,VALID,95.2008,VALID,0,VALID,24.8132,VALID,358,VALID,0.508984,
2009-11-30, 00:36:04,VALID,1003.07,VALID,0,VALID,95.1779,VALID,0,VALID,24.7937,VALID,9,VALID,0.221094,
2009-11-30, 00:37:04,VALID,1003.07,VALID,0,VALID,95.155,VALID,0,VALID,24.7743,VALID,9,VALID,0.357812,
2009-11-30, 00:38:04,VALID,1003.08,VALID,0,VALID,95.155,VALID,0,VALID,24.7743,VALID,9,VALID,0.0121094,
2009-11-30, 00:39:04,VALID,1003.08,VALID,0,VALID,95.1169,VALID,0,VALID,24.7761,VALID,9,VALID,0,
2009-11-30, 00:40:04,VALID,1003.07,VALID,0,VALID,95.094,VALID,0,VALID,24.8151,VALID,9,VALID,0,
2009-11-30, 00:41:04,VALID,1003.06,VALID,0,VALID,95.0864,VALID,0,VALID,24.7743,VALID,9,VALID,0,
2009-11-30, 00:42:04,VALID,1003.04,VALID,0,VALID,95.0864,VALID,0,VALID,24.7743,VALID,9,VALID,0,
2009-11-30, 00:43:04,VALID,1003.08,VALID,0,VALID,95.0711,VALID,0,VALID,24.7743,VALID,9,VALID,0,
2009-11-30, 00:44:04,VALID,1003.02,VALID,0,VALID,95.0635,VALID,0,VALID,24.7743,VALID,9,VALID,0,
2009-11-30, 00:45:04,VALID,1003.04,VALID,0,VALID,95.0558,VALID,0,VALID,24.7956,VALID,9,VALID,0,
2009-11-30, 00:46:04,VALID,1003.04,VALID,0,VALID,95.033,VALID,0,VALID,24.7335,VALID,9,VALID,0,
2009-11-30, 00:47:04,VALID,1003.09,VALID,0,VALID,95.0024,VALID,0,VALID,24.7548,VALID,9,VALID,0,
2009-11-30, 00:48:04,VALID,1003.09,VALID,0,VALID,95.0024,VALID,0,VALID,24.7159,VALID,9,VALID,0,
2009-11-30, 00:49:04,VALID,1003.11,VALID,0,VALID,94.9719,VALID,0,VALID,24.7353,VALID,9,VALID,0,
2009-11-30, 00:50:04,VALID,1003.09,VALID,0,VALID,94.9796,VALID,0,VALID,24.7548,VALID,9,VALID,0,
2009-11-30, 00:51:04,VALID,1003.1,VALID,0,VALID,94.949,VALID,0,VALID,24.7353,VALID,9,VALID,0,
2009-11-30, 00:52:04,VALID,1003.13,VALID,0,VALID,94.9567,VALID,0,VALID,24.7567,VALID,9,VALID,0,
2009-11-30, 00:53:04,VALID,1003.15,VALID,0,VALID,94.949,VALID,0,VALID,24.6964,VALID,9,VALID,0,
2009-11-30, 00:54:04,VALID,1003.15,VALID,0,VALID,94.9262,VALID,0,VALID,24.6983,VALID,9,VALID,0.0675781,
2009-11-30, 00:55:04,VALID,1003.17,VALID,0,VALID,94.9033,VALID,0,VALID,24.6574,VALID,9,VALID,0.396484,
2009-11-30, 00:56:04,VALID,1003.18,VALID,0,VALID,94.8804,VALID,0,VALID,24.6574,VALID,9,VALID,0.385547,
2009-11-30, 00:57:04,VALID,1003.19,VALID,0,VALID,94.8651,VALID,0,VALID,24.599,VALID,9,VALID,0.698047,
2009-11-30, 00:58:04,VALID,1003.21,VALID,0,VALID,94.8422,VALID,0,VALID,24.5796,VALID,9,VALID,0.559766,
2009-11-30, 00:59:04,VALID,1003.18,VALID,0,VALID,94.8499,VALID,0,VALID,24.6204,VALID,9,VALID,0.585156,
2009-11-30, 01:00:04,VALID,1003.2,VALID,0,VALID,94.8499,VALID,0,VALID,24.6009,VALID,9,VALID,0.628125,
2009-11-30, 01:01:04,VALID,1003.18,VALID,0,VALID,94.8499,VALID,0,VALID,24.5601,VALID,9,VALID,0.427344,
2009-11-30, 01:02:04,VALID,1003.17,VALID,0,VALID,94.8651,VALID,0,VALID,24.5796,VALID,9,VALID,0.482031,
2009-11-30, 01:03:04,VALID,1003.16,VALID,0,VALID,94.8728,VALID,0,VALID,24.5814,VALID,9,VALID,0.391797,
2009-11-30, 01:04:04,VALID,1003.13,VALID,0,VALID,94.888,VALID,0,VALID,24.5601,VALID,9,VALID,0.424609,
2009-11-30, 01:05:04,VALID,1003.11,VALID,0,VALID,94.8956,VALID,0,VALID,24.562,VALID,9,VALID,0.426953,
2009-11-30, 01:06:04,VALID,1003.09,VALID,0,VALID,94.8956,VALID,0,VALID,24.4822,VALID,9,VALID,0.472266,
2009-11-30, 01:07:04,VALID,1003.05,VALID,0,VALID,94.8651,VALID,0,VALID,24.4433,VALID,9,VALID,0.446094,
2009-11-30, 01:08:04,VALID,1003.04,VALID,0,VALID,94.8575,VALID,0,VALID,24.4062,VALID,9,VALID,0.425,
2009-11-30, 01:09:04,VALID,1003.02,VALID,0,VALID,94.8194,VALID,0,VALID,24.3459,VALID,9,VALID,0.399219,
2009-11-30, 01:10:04,VALID,1002.98,VALID,0,VALID,94.7965,VALID,0,VALID,24.3088,VALID,9,VALID,0.198437,
2009-11-30, 01:11:04,VALID,1002.98,VALID,0,VALID,94.8194,VALID,0,VALID,24.2681,VALID,9,VALID,0.133594,
2009-11-30, 01:12:04,VALID,1002.9,VALID,0,VALID,94.827,VALID,0,VALID,24.2681,VALID,9,VALID,0.126953,
2009-11-30, 01:13:04,VALID,1002.91,VALID,0,VALID,94.8346,VALID,0,VALID,24.2875,VALID,9,VALID,0.202344,
2009-11-30, 01:14:04,VALID,1002.86,VALID,0,VALID,94.8575,VALID,0,VALID,24.2662,VALID,9,VALID,0.304688,
2009-11-30, 01:15:04,VALID,1002.83,VALID,0,VALID,94.888,VALID,0,VALID,24.2875,VALID,9,VALID,0.223438,
2009-11-30, 01:16:04,VALID,1002.79,VALID,0,VALID,94.9033,VALID,0,VALID,24.3246,VALID,9,VALID,0.125391,
2009-11-30, 01:17:04,VALID,1002.77,VALID,0,VALID,94.9262,VALID,0,VALID,24.3246,VALID,9,VALID,0.00273437,
2009-11-30, 01:18:04,VALID,1002.71,VALID,0,VALID,94.9567,VALID,0,VALID,24.3052,VALID,9,VALID,0.505469,
2009-11-30, 01:19:04,VALID,1002.65,VALID,0,VALID,94.9414,VALID,0,VALID,24.2468,VALID,9,VALID,0.423828,
2009-11-30, 01:20:04,VALID,1002.64,VALID,0,VALID,94.9567,VALID,0,VALID,24.2486,VALID,9,VALID,0.249609,
2009-11-30, 01:21:04,VALID,1002.57,VALID,0,VALID,94.9719,VALID,0,VALID,24.2273,VALID,9,VALID,0.0398437,
2009-11-30, 01:22:04,VALID,1002.58,VALID,0,VALID,94.9796,VALID,0.100563,VALID,24.2468,VALID,9,VALID,0,
2009-11-30, 01:23:04,VALID,1002.54,VALID,0,VALID,94.9796,VALID,0,VALID,24.2662,VALID,9,VALID,0.135547,
2009-11-30, 01:24:04,VALID,1002.53,VALID,0,VALID,95.0253,VALID,0.100563,VALID,24.2662,VALID,4,VALID,0.296875,
2009-11-30, 01:25:04,VALID,1002.52,VALID,0,VALID,95.0177,VALID,0,VALID,24.2857,VALID,341,VALID,0.264844,
2009-11-30, 01:26:04,VALID,1002.49,VALID,0,VALID,95.0482,VALID,0.100563,VALID,24.2857,VALID,341,VALID,0.116016,
2009-11-30, 01:27:04,VALID,1002.5,VALID,0,VALID,95.0482,VALID,0,VALID,24.2644,VALID,341,VALID,0.00117188,
2009-11-30, 01:28:04,VALID,1002.49,VALID,0,VALID,95.033,VALID,0.100563,VALID,24.2681,VALID,341,VALID,0.137109,
2009-11-30, 01:29:04,VALID,1002.49,VALID,0,VALID,95.0253,VALID,0,VALID,24.2681,VALID,341,VALID,0.0382813,
2009-11-30, 01:30:04,VALID,1002.48,VALID,0,VALID,95.0177,VALID,0,VALID,24.2273,VALID,341,VALID,0,
2009-11-30, 01:31:04,VALID,1002.46,VALID,0,VALID,95.0177,VALID,0.100563,VALID,24.2273,VALID,341,VALID,0.362109,
2009-11-30, 01:32:04,VALID,1002.48,VALID,0,VALID,94.9948,VALID,0,VALID,24.2078,VALID,341,VALID,0.232422,
2009-11-30, 01:33:04,VALID,1002.53,VALID,0,VALID,95.0101,VALID,0.100563,VALID,24.2291,VALID,341,VALID,0.155469,
2009-11-30, 01:34:04,VALID,1002.53,VALID,0,VALID,95.0101,VALID,0,VALID,24.1884,VALID,341,VALID,0,
2009-11-30, 01:35:04,VALID,1002.55,VALID,0,VALID,95.0101,VALID,0,VALID,24.1689,VALID,341,VALID,0,
2009-11-30, 01:36:04,VALID,1002.57,VALID,0,VALID,94.9948,VALID,0,VALID,24.1884,VALID,340,VALID,0.398047,
2009-11-30, 01:37:04,VALID,1002.6,VALID,0,VALID,95.0101,VALID,0,VALID,24.2078,VALID,311,VALID,0.232031,
2009-11-30, 01:38:04,VALID,1002.63,VALID,0,VALID,95.0177,VALID,0,VALID,24.2486,VALID,291,VALID,0.272656,
2009-11-30, 01:39:04,VALID,1002.65,VALID,0,VALID,95.033,VALID,0.100563,VALID,24.2662,VALID,291,VALID,0.466797,
2009-11-30, 01:40:04,VALID,1002.7,VALID,0,VALID,95.0406,VALID,0,VALID,24.3441,VALID,293,VALID,0.495703,
2009-11-30, 01:41:04,VALID,1002.69,VALID,0,VALID,95.0558,VALID,0.100563,VALID,24.422,VALID,292,VALID,0.304688,
2009-11-30, 01:42:04,VALID,1002.73,VALID,0,VALID,95.033,VALID,0.100563,VALID,24.4433,VALID,292,VALID,0.318359,
2009-11-30, 01:43:04,VALID,1002.75,VALID,0,VALID,95.0177,VALID,0,VALID,24.4628,VALID,292,VALID,0.616016,
2009-11-30, 01:44:04,VALID,1002.76,VALID,0,VALID,95.0101,VALID,0,VALID,24.5212,VALID,275,VALID,0.178906,
2009-11-30, 01:45:04,VALID,1002.78,VALID,0,VALID,94.9643,VALID,0,VALID,24.562,VALID,275,VALID,0.236719,
2009-11-30, 01:46:04,VALID,1002.77,VALID,0,VALID,94.8728,VALID,0,VALID,24.5601,VALID,275,VALID,0,
2009-11-30, 01:47:04,VALID,1002.78,VALID,0,VALID,94.7812,VALID,0,VALID,24.5796,VALID,275,VALID,0,
2009-11-30, 01:48:04,VALID,1002.77,VALID,0,VALID,94.7278,VALID,0,VALID,24.5796,VALID,275,VALID,0,
2009-11-30, 01:49:04,VALID,1002.79,VALID,0,VALID,94.6286,VALID,0,VALID,24.5601,VALID,275,VALID,0.146094,
2009-11-30, 01:50:04,VALID,1002.8,VALID,0,VALID,94.5523,VALID,0,VALID,24.5582,VALID,276,VALID,0.186719,
2009-11-30, 01:51:04,VALID,1002.73,VALID,0,VALID,94.5066,VALID,0,VALID,24.5796,VALID,276,VALID,0.204297,
2009-11-30, 01:52:04,VALID,1002.73,VALID,0,VALID,94.4761,VALID,0,VALID,24.6185,VALID,276,VALID,0.216797,
2009-11-30, 01:53:04,VALID,1002.7,VALID,0,VALID,94.4227,VALID,0,VALID,24.6574,VALID,275,VALID,0.111719,
2009-11-30, 01:54:04,VALID,1002.72,VALID,0,VALID,94.3616,VALID,0,VALID,24.6574,VALID,276,VALID,0.0898438,
2009-11-30, 01:55:04,VALID,1002.7,VALID,0,VALID,94.3082,VALID,0,VALID,24.6983,VALID,276,VALID,0.123047,
2009-11-30, 01:56:05,VALID,1002.69,VALID,0,VALID,94.2548,VALID,0,VALID,24.7159,VALID,322,VALID,0.532031,
2009-11-30, 01:57:04,VALID,1002.71,VALID,0,VALID,94.1785,VALID,0,VALID,24.7372,VALID,326,VALID,0.04375,
2009-11-30, 01:58:05,VALID,1002.72,VALID,0,VALID,94.1099,VALID,0,VALID,24.7353,VALID,327,VALID,0.0523437,
2009-11-30, 01:59:05,VALID,1002.7,VALID,0,VALID,94.0336,VALID,0,VALID,24.7353,VALID,327,VALID,0,
2009-11-30, 02:00:05,VALID,1002.74,VALID,0,VALID,93.942,VALID,0,VALID,24.7353,VALID,327,VALID,0,
2009-11-30, 02:01:05,VALID,1002.71,VALID,0,VALID,93.881,VALID,0,VALID,24.7548,VALID,327,VALID,0,
2009-11-30, 02:02:05,VALID,1002.74,VALID,0,VALID,93.82,VALID,0,VALID,24.7548,VALID,334,VALID,0.217578,
2009-11-30, 02:03:05,VALID,1002.72,VALID,0,VALID,93.7742,VALID,0,VALID,24.7548,VALID,9,VALID,0.571484,
2009-11-30, 02:04:05,VALID,1002.72,VALID,0,VALID,93.6903,VALID,0,VALID,24.7937,VALID,331,VALID,0.291016,
2009-11-30, 02:05:05,VALID,1002.72,VALID,0,VALID,93.5911,VALID,0,VALID,24.8132,VALID,295,VALID,1.09336,
2009-11-30, 02:06:05,VALID,1002.72,VALID,0,VALID,93.4233,VALID,0,VALID,24.8327,VALID,313,VALID,0.538672,
2009-11-30, 02:07:05,VALID,1002.72,VALID,0,VALID,93.1639,VALID,0,VALID,24.893,VALID,346,VALID,0.741797,
2009-11-30, 02:08:05,VALID,1002.75,VALID,0,VALID,92.9884,VALID,0,VALID,24.8716,VALID,348,VALID,0.175781,
2009-11-30, 02:09:05,VALID,1002.75,VALID,0,VALID,92.8511,VALID,0,VALID,24.8522,VALID,347,VALID,0.00585938,
2009-11-30, 02:10:05,VALID,1002.72,VALID,0,VALID,92.7672,VALID,0,VALID,24.8716,VALID,341,VALID,0.226172,
2009-11-30, 02:11:05,VALID,1002.68,VALID,0,VALID,92.7062,VALID,0,VALID,24.893,VALID,338,VALID,0.275781,
2009-11-30, 02:12:05,VALID,1002.7,VALID,0,VALID,92.6451,VALID,0,VALID,24.8716,VALID,13,VALID,0.344922,
2009-11-30, 02:13:05,VALID,1002.68,VALID,0,VALID,92.546,VALID,0,VALID,24.8892,VALID,343,VALID,0.380469,
2009-11-30, 02:14:05,VALID,1002.71,VALID,0,VALID,92.4086,VALID,0,VALID,24.9106,VALID,332,VALID,0.514844,
2009-11-30, 02:15:05,VALID,1002.66,VALID,0,VALID,92.2408,VALID,0.100563,VALID,24.93,VALID,338,VALID,0.315625,
2009-11-30, 02:16:05,VALID,1002.66,VALID,0,VALID,92.1416,VALID,0,VALID,24.9495,VALID,335,VALID,0.00195313,
2009-11-30, 02:17:05,VALID,1002.61,VALID,0,VALID,92.0882,VALID,0,VALID,24.9087,VALID,335,VALID,0.0628906,
2009-11-30, 02:18:05,VALID,1002.55,VALID,0,VALID,92.1035,VALID,0,VALID,24.93,VALID,355,VALID,0.924609,
2009-11-30, 02:19:05,VALID,1002.54,VALID,0,VALID,91.9585,VALID,0,VALID,24.969,VALID,360,VALID,0.73125,
2009-11-30, 02:20:05,VALID,1002.53,VALID,0,VALID,91.7907,VALID,0,VALID,24.969,VALID,349,VALID,0.747266,
2009-11-30, 02:21:05,VALID,1002.52,VALID,0,VALID,91.8212,VALID,0,VALID,24.9866,VALID,330,VALID,0.787109,
2009-11-30, 02:22:05,VALID,1002.56,VALID,0,VALID,91.6152,VALID,0,VALID,25.0255,VALID,350,VALID,0.737891,
2009-11-30, 02:23:05,VALID,1002.56,VALID,0,VALID,91.4169,VALID,0,VALID,25.045,VALID,1,VALID,0.0390625,
2009-11-30, 02:24:05,VALID,1002.56,VALID,0,VALID,91.394,VALID,0.100563,VALID,25.0663,VALID,327,VALID,0.254687,
2009-11-30, 02:25:05,VALID,1002.57,VALID,0,VALID,91.4779,VALID,0.100563,VALID,25.0858,VALID,325,VALID,0.164063,
2009-11-30, 02:26:05,VALID,1002.54,VALID,0,VALID,91.5084,VALID,0.100563,VALID,25.0839,VALID,348,VALID,0.496875,
2009-11-30, 02:27:05,VALID,1002.5,VALID,0,VALID,91.4855,VALID,0,VALID,25.1248,VALID,2,VALID,0.625391,
2009-11-30, 02:28:05,VALID,1002.47,VALID,0,VALID,91.4016,VALID,0,VALID,25.1442,VALID,357,VALID,0.569141,
2009-11-30, 02:29:05,VALID,1002.43,VALID,0,VALID,91.2185,VALID,0,VALID,25.1637,VALID,357,VALID,0.174219,
2009-11-30, 02:30:05,VALID,1002.44,VALID,0,VALID,91.1041,VALID,0,VALID,25.1637,VALID,357,VALID,0.24375,
2009-11-30, 02:31:05,VALID,1002.44,VALID,0,VALID,91.1117,VALID,0,VALID,25.1656,VALID,357,VALID,0.675391,
2009-11-30, 02:32:05,VALID,1002.39,VALID,0,VALID,91.1346,VALID,0,VALID,25.1637,VALID,290,VALID,0.178906,
2009-11-30, 02:33:05,VALID,1002.38,VALID,0,VALID,91.2109,VALID,0,VALID,25.1637,VALID,357,VALID,0.461328,
2009-11-30, 02:34:05,VALID,1002.32,VALID,0,VALID,91.2414,VALID,0,VALID,25.1656,VALID,344,VALID,0.619141,
2009-11-30, 02:35:05,VALID,1002.34,VALID,0,VALID,91.2719,VALID,0,VALID,25.1442,VALID,340,VALID,0.687891,
2009-11-30, 02:36:05,VALID,1002.28,VALID,0,VALID,91.249,VALID,0,VALID,25.1248,VALID,2,VALID,0.193359,
2009-11-30, 02:37:05,VALID,1002.26,VALID,0,VALID,91.2643,VALID,0,VALID,25.1053,VALID,1,VALID,0.14375,
2009-11-30, 02:38:05,VALID,1002.26,VALID,0,VALID,91.2414,VALID,0,VALID,25.1072,VALID,1,VALID,0.163672,
2009-11-30, 02:39:05,VALID,1002.24,VALID,0,VALID,91.2796,VALID,0,VALID,25.0877,VALID,1,VALID,0.2,
2009-11-30, 02:40:05,VALID,1002.21,VALID,0,VALID,91.3406,VALID,0,VALID,25.045,VALID,1,VALID,0.400781,
2009-11-30, 02:41:05,VALID,1002.22,VALID,0,VALID,91.4245,VALID,0,VALID,25.0274,VALID,357,VALID,0.337891,
2009-11-30, 02:42:05,VALID,1002.26,VALID,0,VALID,91.4474,VALID,0,VALID,25.0079,VALID,356,VALID,0,
2009-11-30, 02:43:05,VALID,1002.24,VALID,0,VALID,91.4703,VALID,0,VALID,24.9885,VALID,356,VALID,0,
2009-11-30, 02:44:05,VALID,1002.26,VALID,0,VALID,91.5466,VALID,0,VALID,24.9282,VALID,356,VALID,0.00429688,
2009-11-30, 02:45:05,VALID,1002.25,VALID,0,VALID,91.6381,VALID,0,VALID,24.9087,VALID,356,VALID,0.00273437,
2009-11-30, 02:46:05,VALID,1002.26,VALID,0,VALID,91.7449,VALID,0,VALID,24.9106,VALID,355,VALID,0,
2009-11-30, 02:47:05,VALID,1002.26,VALID,0,VALID,91.8899,VALID,0,VALID,24.9125,VALID,343,VALID,0.167578,
2009-11-30, 02:48:05,VALID,1002.32,VALID,0,VALID,91.9204,VALID,0,VALID,24.8911,VALID,284,VALID,0.251953,
2009-11-30, 02:49:05,VALID,1002.34,VALID,0,VALID,91.9433,VALID,0,VALID,24.8289,VALID,284,VALID,0.323438,
2009-11-30, 02:50:05,VALID,1002.38,VALID,0,VALID,91.9967,VALID,0.100563,VALID,24.8522,VALID,289,VALID,0.60625,
2009-11-30, 02:51:05,VALID,1002.36,VALID,0,VALID,92.0348,VALID,0,VALID,24.8522,VALID,297,VALID,0.153906,
2009-11-30, 02:52:05,VALID,1002.37,VALID,0,VALID,92.0272,VALID,0,VALID,24.8522,VALID,358,VALID,0.385547,
2009-11-30, 02:53:05,VALID,1002.4,VALID,0,VALID,91.9662,VALID,0.100563,VALID,24.8522,VALID,29,VALID,0.173047,
2009-11-30, 02:54:05,VALID,1002.42,VALID,0,VALID,91.9662,VALID,0.100563,VALID,24.8327,VALID,321,VALID,0.269531,
2009-11-30, 02:55:05,VALID,1002.39,VALID,0,VALID,91.9738,VALID,0.100563,VALID,24.8113,VALID,326,VALID,0.255078,
2009-11-30, 02:56:05,VALID,1002.41,VALID,0,VALID,91.9814,VALID,0,VALID,24.7919,VALID,342,VALID,0.309766,
2009-11-30, 02:57:05,VALID,1002.45,VALID,0,VALID,91.9662,VALID,0.100563,VALID,24.7937,VALID,334,VALID,0.514844,
2009-11-30, 02:58:05,VALID,1002.46,VALID,0,VALID,91.9433,VALID,0,VALID,24.7743,VALID,336,VALID,0.117969,
2009-11-30, 02:59:05,VALID,1002.49,VALID,0,VALID,91.9585,VALID,0,VALID,24.7743,VALID,295,VALID,0.469922,
2009-11-30, 03:00:05,VALID,1002.45,VALID,0,VALID,91.9509,VALID,0,VALID,24.7529,VALID,288,VALID,0.359375,
2009-11-30, 03:01:05,VALID,1002.48,VALID,0,VALID,91.9433,VALID,0.100563,VALID,24.7335,VALID,342,VALID,0.371094,
2009-11-30, 03:02:05,VALID,1002.47,VALID,0,VALID,91.9509,VALID,0.100563,VALID,24.7335,VALID,343,VALID,0.457422,
2009-11-30, 03:03:05,VALID,1002.47,VALID,0,VALID,91.9509,VALID,0,VALID,24.714,VALID,351,VALID,0.341016,
2009-11-30, 03:04:05,VALID,1002.49,VALID,0,VALID,91.9509,VALID,0.100563,VALID,24.6945,VALID,351,VALID,0.309766,
2009-11-30, 03:05:05,VALID,1002.52,VALID,0,VALID,91.9585,VALID,0,VALID,24.6945,VALID,355,VALID,0.575781,
2009-11-30, 03:06:05,VALID,1002.52,VALID,0,VALID,91.9738,VALID,0.100563,VALID,24.675,VALID,336,VALID,0.567187,
2009-11-30, 03:07:05,VALID,1002.54,VALID,0,VALID,91.9433,VALID,0,VALID,24.675,VALID,340,VALID,0,
2009-11-30, 03:08:05,VALID,1002.56,VALID,0,VALID,91.9585,VALID,0,VALID,24.6556,VALID,328,VALID,0.449219,
2009-11-30, 03:09:05,VALID,1002.61,VALID,0,VALID,91.9509,VALID,0,VALID,24.6361,VALID,320,VALID,0.357422,
2009-11-30, 03:10:05,VALID,1002.58,VALID,0,VALID,91.9585,VALID,0.100563,VALID,24.6556,VALID,324,VALID,1.26953,
2009-11-30, 03:11:05,VALID,1002.61,VALID,0,VALID,91.9051,VALID,0.100563,VALID,24.6556,VALID,338,VALID,0.692578,
2009-11-30, 03:12:05,VALID,1002.63,VALID,0,VALID,91.8517,VALID,0,VALID,24.6769,VALID,1,VALID,0.315625,
2009-11-30, 03:13:05,VALID,1002.61,VALID,0,VALID,91.7831,VALID,0,VALID,24.6574,VALID,352,VALID,0.625,
2009-11-30, 03:14:05,VALID,1002.57,VALID,0,VALID,91.7068,VALID,0,VALID,24.6788,VALID,345,VALID,1.05508,
2009-11-30, 03:15:05,VALID,1002.57,VALID,0,VALID,91.6152,VALID,0,VALID,24.6769,VALID,321,VALID,0.291016,
2009-11-30, 03:16:05,VALID,1002.54,VALID,0,VALID,91.4398,VALID,0,VALID,24.6769,VALID,343,VALID,0.950781,
2009-11-30, 03:17:05,VALID,1002.52,VALID,0,VALID,91.2033,VALID,0,VALID,24.6964,VALID,25,VALID,0.878125,
2009-11-30, 03:18:05,VALID,1002.49,VALID,0,VALID,91.0202,VALID,0,VALID,24.6964,VALID,4,VALID,0.540625,
2009-11-30, 03:19:05,VALID,1002.47,VALID,0,VALID,90.8905,VALID,0,VALID,24.6964,VALID,349,VALID,1.1625,
2009-11-30, 03:20:05,VALID,1002.46,VALID,0,VALID,90.5472,VALID,0,VALID,24.6945,VALID,351,VALID,1.37656,
2009-11-30, 03:21:05,VALID,1002.47,VALID,0,VALID,90.2878,VALID,0,VALID,24.7353,VALID,8,VALID,1.00742,
2009-11-30, 03:22:05,VALID,1002.49,VALID,0,VALID,90.181,VALID,0,VALID,24.7548,VALID,355,VALID,0.7125,
2009-11-30, 03:23:05,VALID,1002.48,VALID,0,VALID,90.0666,VALID,0,VALID,24.7353,VALID,339,VALID,0.927344,
2009-11-30, 03:24:05,VALID,1002.45,VALID,0,VALID,90.0666,VALID,0,VALID,24.7548,VALID,354,VALID,0.903516,
2009-11-30, 03:25:05,VALID,1002.45,VALID,0,VALID,90.036,VALID,0,VALID,24.7548,VALID,339,VALID,0.909766,
2009-11-30, 03:26:05,VALID,1002.45,VALID,0,VALID,90.0589,VALID,0,VALID,24.7159,VALID,354,VALID,0.896875,
2009-11-30, 03:27:05,VALID,1002.41,VALID,0,VALID,90.0971,VALID,0,VALID,24.6964,VALID,353,VALID,1.10859,
2009-11-30, 03:28:05,VALID,1002.41,VALID,0,VALID,90.1123,VALID,0,VALID,24.6964,VALID,353,VALID,1.31992,
2009-11-30, 03:29:05,VALID,1002.38,VALID,0,VALID,90.1047,VALID,0,VALID,24.6769,VALID,350,VALID,0.850781,
2009-11-30, 03:30:05,VALID,1002.38,VALID,0,VALID,90.1581,VALID,0,VALID,24.6769,VALID,356,VALID,1.00625,
2009-11-30, 03:31:05,VALID,1002.32,VALID,0,VALID,90.2344,VALID,0.100563,VALID,24.6769,VALID,354,VALID,0.980078,
2009-11-30, 03:32:05,VALID,1002.34,VALID,0,VALID,90.2344,VALID,0.100563,VALID,24.6556,VALID,349,VALID,0.398047,
2009-11-30, 03:33:05,VALID,1002.31,VALID,0,VALID,90.2649,VALID,0,VALID,24.6769,VALID,357,VALID,0.447656,
2009-11-30, 03:34:05,VALID,1002.32,VALID,0,VALID,90.3107,VALID,0,VALID,24.6769,VALID,13,VALID,0.614062,
2009-11-30, 03:35:05,VALID,1002.23,VALID,0,VALID,90.3183,VALID,0,VALID,24.6574,VALID,353,VALID,0.884375,
2009-11-30, 03:36:05,VALID,1002.24,VALID,0,VALID,90.2802,VALID,0,VALID,24.6361,VALID,340,VALID,0.555859,
2009-11-30, 03:37:05,VALID,1002.18,VALID,0,VALID,90.2573,VALID,0,VALID,24.6769,VALID,355,VALID,1.01406,
2009-11-30, 03:38:05,VALID,1002.17,VALID,0,VALID,90.1963,VALID,0,VALID,24.6945,VALID,358,VALID,1.50391,
2009-11-30, 03:39:05,VALID,1002.16,VALID,0,VALID,90.0666,VALID,0,VALID,24.7567,VALID,353,VALID,1.00586,
2009-11-30, 03:40:05,VALID,1002.16,VALID,0,VALID,89.8148,VALID,0,VALID,24.7548,VALID,338,VALID,1.18164,
2009-11-30, 03:41:05,VALID,1002.23,VALID,0,VALID,89.6927,VALID,0,VALID,24.7743,VALID,354,VALID,0.762109,
2009-11-30, 03:42:05,VALID,1002.26,VALID,0,VALID,89.5631,VALID,0,VALID,24.7743,VALID,353,VALID,0.811719,
2009-11-30, 03:43:05,VALID,1002.29,VALID,0,VALID,89.4486,VALID,0.100563,VALID,24.7705,VALID,353,VALID,0.664844,
2009-11-30, 03:44:05,VALID,1002.32,VALID,0,VALID,89.2045,VALID,0.100563,VALID,24.7919,VALID,352,VALID,1.00469,
2009-11-30, 03:45:05,VALID,1002.34,VALID,0,VALID,89.0061,VALID,0.100563,VALID,24.79,VALID,343,VALID,0.930078,
2009-11-30, 03:46:05,VALID,1002.33,VALID,0,VALID,88.8841,VALID,0.100563,VALID,24.8308,VALID,355,VALID,0.714844,
2009-11-30, 03:47:05,VALID,1002.32,VALID,0,VALID,88.8002,VALID,0.100563,VALID,24.8095,VALID,346,VALID,0.85625,